Tacoma, WA

4:41 AM PST on February 26, 2017 (GMT -0800)
McChord Air Force Base

Weather History for KTCM - December, 2013

Change the Weather History Date:

Monday, December 9, 2013

  Actual Average Record
Temperature  
Mean Temperature 23 °F -  
Max Temperature 32 °F 46 °F 60 °F (2014)
Min Temperature 14 °F 33 °F 7 °F (2009)
Degree Days  
Heating Degree Days 42    
Moisture  
Dew Point 22 °F    
Average Humidity 80    
Maximum Humidity 93    
Minimum Humidity 64    
Precipitation  
Precipitation 0.00 in - - ()
Sea Level Pressure  
Sea Level Pressure 30.54 in    
Wind  
Wind Speed 2 mph (South)    
Max Wind Speed 5 mph    
Max Gust Speed -    
Visibility 10 miles    
Events Snow    
Averages and records for this station are not official NWS values.
T = Trace of Precipitation, MM = Missing Value Source: NWS Daily Summary

Daily Weather History Graph

Daily Weather History Graph

Search for Another Location

Airport or City:

Trip Planner

Search our weather history database for the weather conditions in past years. The results will help you decide how hot, cold, wet, or windy it might be!

Date:

Astronomy

Dec. 09, 2013 Rise Set
Actual Time 7:44 AM PST 4:20 PM PST
Civil Twilight 7:09 AM PST 4:55 PM PST
Nautical Twilight 6:30 AM PST 5:34 PM PST
Astronomical Twilight 5:53 AM PST 6:11 PM PST
Moon 12:16 PM PST (12/9) No Moon Set
Length of Visible Light 9h 46m
Length of Day
8h 35m
First Quarter, 52% of the Moon is Illuminated
Dec 9
First Quarter
Dec 17
Full
Dec 25
Last Quarter
Jan 1
New
Jan 7
First Quarter

Hourly Weather History & Observations

Time (PST) Temp. Windchill Dew Point Humidity Pressure Visibility Wind Dir Wind Speed Gust Speed Precip Events Conditions
12:58 AM 14.5 °F 7.1 °F 12.0 °F 90% 30.59 in 10.0 mi South 4.6 mph - N/A   Clear
1:58 AM 14.4 °F - 12.2 °F 91% 30.61 in 10.0 mi Calm Calm - N/A   Clear
2:58 AM 14.0 °F - 11.8 °F 91% 30.61 in 10.0 mi South 1.2 mph - N/A   Mostly Cloudy
3:58 AM 17.6 °F - 14.5 °F 88% 30.59 in 10.0 mi Variable 2.3 mph - N/A   Overcast
4:58 AM 19.9 °F - 15.8 °F 84% 30.59 in 10.0 mi North 2.3 mph - N/A   Overcast
5:58 AM 21.0 °F - 16.3 °F 82% 30.58 in 10.0 mi Calm Calm - N/A   Overcast
6:58 AM 21.7 °F 15.5 °F 18.7 °F 88% 30.59 in 10.0 mi South 4.6 mph - N/A   Overcast
7:08 AM 21.2 °F 14.9 °F 17.6 °F 86% 30.56 in 10.0 mi South 4.6 mph - N/A   Overcast
7:23 AM 21.2 °F 16.4 °F 17.6 °F 86% 30.56 in 10.0 mi South 3.5 mph - N/A   Overcast
7:58 AM 22.3 °F - 18.7 °F 86% 30.59 in 10.0 mi SSE 2.3 mph - N/A   Overcast
8:58 AM 23.2 °F 17.2 °F 19.0 °F 84% 30.59 in 10.0 mi SSW 4.6 mph - N/A   Overcast
9:58 AM 24.6 °F 18.8 °F 18.7 °F 78% 30.59 in 10.0 mi South 4.6 mph - N/A   Overcast
10:23 AM 26.6 °F - 19.4 °F 74% 30.57 in 10.0 mi WSW 2.3 mph - N/A   Overcast
10:53 AM 26.6 °F - 19.4 °F 74% 30.56 in 10.0 mi Calm Calm - N/A   Overcast
10:58 AM 26.4 °F - 19.2 °F 74% 30.59 in 10.0 mi Calm Calm - N/A   Overcast
11:58 AM 28.6 °F - 20.7 °F 72% 30.58 in 10.0 mi Variable 2.3 mph - N/A   Overcast
12:58 PM 30.2 °F - 21.0 °F 69% 30.58 in 10.0 mi Variable 1.2 mph - N/A   Overcast
1:58 PM 30.6 °F - 20.8 °F 67% 30.57 in 10.0 mi NE 1.2 mph - N/A   Overcast
2:58 PM 30.9 °F - 21.0 °F 67% 30.56 in 10.0 mi Calm Calm - N/A   Overcast
3:58 PM 30.7 °F - 21.7 °F 69% 30.56 in 10.0 mi SSE 1.2 mph - N/A   Overcast
4:08 PM 32.0 °F - 21.2 °F 64% 30.52 in 10.0 mi SE 2.3 mph - N/A   Overcast
4:53 PM 32.0 °F - 21.2 °F 64% 30.51 in 10.0 mi SSE 2.3 mph - N/A   Overcast
4:58 PM 30.2 °F - 21.9 °F 71% 30.55 in 10.0 mi Calm Calm - N/A   Overcast
5:03 PM 30.2 °F - 23.0 °F 75% 30.52 in 10.0 mi South 1.2 mph - N/A   Overcast
5:13 PM 30.2 °F - 23.0 °F 75% 30.52 in 10.0 mi Calm Calm - N/A   Overcast
5:18 PM 30.2 °F - 23.0 °F 75% 30.51 in 10.0 mi Calm Calm - N/A   Overcast
5:58 PM 30.2 °F - 22.3 °F 72% 30.54 in 10.0 mi Calm Calm - N/A   Overcast
6:23 PM 30.2 °F - 23.0 °F 75% 30.50 in 10.0 mi South 2.3 mph - N/A   Overcast
6:43 PM 30.2 °F - 23.0 °F 75% 30.50 in 10.0 mi SSW 2.3 mph - N/A Snow Light Snow
6:58 PM 29.8 °F - 23.5 °F 77% 30.53 in 10.0 mi East 1.2 mph - 0.00 in Snow Light Snow
7:00 PM 30.2 °F - 23.0 °F 75% 30.50 in 10.0 mi SE 1.2 mph - N/A   Overcast
7:10 PM 30.2 °F - 23.0 °F 75% 30.50 in 10.0 mi South 2.3 mph - N/A Snow Light Snow
7:16 PM 30.2 °F - 24.8 °F 80% 30.50 in 10.0 mi South 2.3 mph - N/A Snow Light Snow
7:26 PM 30.2 °F - 23.0 °F 75% 30.50 in 10.0 mi SW 1.2 mph - N/A Snow Light Snow
7:28 PM 30.2 °F - 24.8 °F 80% 30.50 in 10.0 mi SW 2.3 mph - N/A   Overcast
7:29 PM 30.2 °F - 24.8 °F 80% 30.50 in 10.0 mi SW 2.3 mph - N/A Snow Light Snow
7:32 PM 30.2 °F - 24.8 °F 80% 30.50 in 10.0 mi SW 2.3 mph - N/A Snow Light Snow
7:54 PM 30.2 °F - 24.8 °F 80% 30.50 in 10.0 mi WSW 1.2 mph - N/A Snow Light Snow
7:56 PM 30.2 °F - 24.8 °F 80% 30.50 in 10.0 mi West 1.2 mph - N/A Snow Light Snow
7:58 PM 29.7 °F - 24.4 °F 81% 30.53 in 10.0 mi West 1.2 mph - 0.00 in Snow Light Snow
8:01 PM 30.2 °F - 24.8 °F 80% 30.50 in 10.0 mi WNW 2.3 mph - N/A Snow Light Snow
8:19 PM 30.2 °F 25.4 °F 24.8 °F 80% 30.50 in 10.0 mi SW 4.6 mph - N/A Snow Light Snow
8:31 PM 30.2 °F - 24.8 °F 80% 30.50 in 10.0 mi SW 2.3 mph - N/A   Overcast
8:36 PM 30.2 °F - 24.8 °F 80% 30.50 in 10.0 mi SSW 2.3 mph - N/A Snow Light Snow
8:48 PM 30.2 °F 26.7 °F 24.8 °F 80% 30.50 in 10.0 mi SSW 3.5 mph - N/A Snow Light Snow
8:58 PM 29.3 °F - 25.7 °F 86% 30.53 in 9.0 mi SSW 2.3 mph - 0.00 in Snow Light Snow
9:04 PM 28.4 °F - 24.8 °F 86% 30.50 in 10.0 mi SSW 1.2 mph - N/A   Overcast
9:05 PM 28.4 °F - 24.8 °F 86% 30.50 in 10.0 mi Calm Calm - N/A   Overcast
9:34 PM 28.4 °F - 26.6 °F 93% 30.49 in 10.0 mi SE 2.3 mph - N/A   Overcast
9:58 PM 29.1 °F - 25.9 °F 88% 30.53 in 10.0 mi SSE 2.3 mph - 0.00 in   Overcast
10:54 PM 30.2 °F - 26.6 °F 86% 30.50 in 10.0 mi ESE 2.3 mph - N/A Snow Light Snow
10:58 PM 29.7 °F - 26.2 °F 87% 30.53 in 10.0 mi ESE 2.3 mph - 0.00 in Snow Light Snow
11:04 PM 30.2 °F 26.7 °F 26.6 °F 86% 30.50 in 10.0 mi East 3.5 mph - N/A   Overcast
11:11 PM 30.2 °F 25.4 °F 26.6 °F 86% 30.50 in 10.0 mi East 4.6 mph - N/A Snow Light Snow
11:21 PM 30.2 °F 26.7 °F 26.6 °F 86% 30.50 in 10.0 mi ESE 3.5 mph - N/A   Overcast
11:58 PM 29.7 °F - 27.1 °F 90% 30.53 in 10.0 mi ESE 1.2 mph - 0.00 in   Overcast